Flag for U.S.A. Weather past 2 weeks in Memphis, Tennessee, U.S.A.

Now
86 °F

Passing clouds.


Feels Like: 86 °F
Forecast: 63 / 86 °F
Wind: 6 mph from North

Location: Memphis International Airport

Current Time: Jul 25, 2014 at 3:53:06 PM

Latest Report: Jul 25, 2014 at 2:54 PM


Visibility: 10 mi

Pressure: 30.01 "Hg

Humidity: 43%

Dew point: 61 °F

Location of MemphisLocation

Historic Weather in Memphis — Graph

°F

Memphis temperature yesterday

Maximum temperature yesterday: 83 °F (at 1:54 PM)
Minimum temperature yesterday: 72 °F (at 2:54 AM)
Average temperature yesterday: 76 °F

Past Weeks' High & Low Weather Summary

 TemperatureHumidityPressure
High94 °F (Jul 14, 1:54 PM)94% (Jul 14, 11:54 PM)30.18 "Hg (Jul 14, 11:54 PM)
Low63 °F (Jul 16, 4:54 AM)39% (Jul 10, 2:54 PM)29.85 "Hg (Jul 14, 3:54 PM)
Average77 °F68%30.03 "Hg
* Reported Jul 10 2:54 PM — Jul 25 2:54 PM, Memphis, Weather by CustomWeather, © 2014

Note: Actual official high and low records may vary slightly from our data, if they occured in-between our weather recording intervals... More about our weather records

Advertising

Memphis weather history for previous 24 hours

 ConditionsComfort  
Time TempWeatherWind HumidityBarometerVisibility
2:54 PM
Jul 25
86 °FPassing clouds.6 mph43%30.01 "Hg10 mi
1:54 PM85 °FPassing clouds.8 mph42%30.03 "Hg10 mi
12:54 PM84 °FScattered clouds.7 mph48%30.02 "Hg10 mi
11:54 AM83 °FScattered clouds.No wind50%30.04 "Hg10 mi
10:54 AM80 °FScattered clouds.No wind52%30.04 "Hg10 mi
9:54 AM78 °FScattered clouds.No wind56%30.06 "Hg10 mi
8:54 AM74 °FScattered clouds.3 mph64%30.06 "Hg10 mi
7:54 AM72 °FScattered clouds.No wind68%30.05 "Hg10 mi
6:54 AM68 °FPassing clouds.6 mph76%30.04 "Hg10 mi
5:54 AM66 °FPassing clouds.5 mph81%30.02 "Hg10 mi
4:54 AM67 °FClear.No wind79%30.01 "Hg10 mi
3:54 AM69 °FClear.No wind73%30.01 "Hg10 mi
2:54 AM68 °FClear.No wind76%30.00 "Hg10 mi
1:54 AM69 °FClear.No wind76%30.01 "Hg10 mi
12:54 AM72 °FClear.5 mph68%30.02 "Hg10 mi
11:54 PM
Jul 24
72 °FPassing clouds.6 mph68%30.03 "Hg10 mi
10:54 PM73 °FPassing clouds.7 mph66%30.03 "Hg10 mi
9:54 PM72 °FClear.6 mph68%30.03 "Hg10 mi
8:54 PM73 °FPassing clouds.6 mph66%30.01 "Hg10 mi
7:54 PM76 °FScattered clouds.8 mph58%29.99 "Hg10 mi
6:54 PM79 °FPassing clouds.9 mph50%29.98 "Hg10 mi
5:54 PM80 °FPassing clouds.7 mph44%29.99 "Hg10 mi
4:54 PM82 °FPassing clouds.9 mph40%30.01 "Hg10 mi
3:54 PM83 °FSunny.13 mph41%30.02 "Hg10 mi
Weather by CustomWeather, © 2014

See weather overviewHow to use our weather pages